Christchurch, New Zealand

9:24 AM NZDT on January 23, 2017 (GMT +1300)
Christchurch

Weather History for 93780 - January, 2014

Change the Weather History Date:

Wednesday, January 29, 2014

  Actual Average Record
Temperature  
Mean Temperature 63 °F -  
Max Temperature 75 °F 69 °F - ()
Min Temperature 51 °F 51 °F - ()
Degree Days  
Heating Degree Days 2    
Growing Degree Days 13 (Base 50)    
Moisture  
Dew Point 53 °F    
Average Humidity 71    
Maximum Humidity 94    
Minimum Humidity 44    
Precipitation  
Precipitation 0.00 in - - ()
Sea Level Pressure  
Sea Level Pressure 29.99 in    
Wind  
Wind Speed 10 mph ()    
Max Wind Speed 22 mph    
Max Gust Speed -    
Visibility 6.2 miles    
Events      
T = Trace of Precipitation, MM = Missing Value Source: Averaged Metar Reports

Daily Weather History Graph

Daily Weather History Graph

Search for Another Location

Airport or City:

Trip Planner

Search our weather history database for the weather conditions in past years. The results will help you decide how hot, cold, wet, or windy it might be!

Date:

Astronomy

Jan. 29, 2014 Rise Set
Actual Time 6:25 AM NZDT 8:59 PM NZDT
Civil Twilight 5:52 AM NZDT 9:31 PM NZDT
Nautical Twilight 5:12 AM NZDT 10:12 PM NZDT
Astronomical Twilight 4:25 AM NZDT 10:58 PM NZDT
Moon 4:11 AM NZDT (1/29) 7:12 PM NZDT (1/29)
Length of Visible Light 15h 38m
Length of Day
14h 33m
Waning Crescent, 6% of the Moon is Illuminated
Jan 29
Waning Crescent
Jan 31
New
Feb 7
First Quarter
Feb 15
Full
Feb 23
Last Quarter

Hourly Weather History & Observations

Time (NZDT) Temp. Dew Point Humidity Pressure Visibility Wind Dir Wind Speed Gust Speed Precip Events Conditions
12:00 AM 53.6 °F 51.8 °F 94% 30.12 in 6.2 mi ENE 3.5 mph - N/A   Unknown
12:30 AM 53.6 °F 50.0 °F 88% 30.12 in 6.2 mi ENE 3.5 mph - N/A   Unknown
1:00 AM 55.4 °F 53.6 °F 94% 30.12 in 6.2 mi East 5.8 mph - N/A   Unknown
1:30 AM 55.4 °F 51.8 °F 88% 30.12 in 6.2 mi East 5.8 mph - N/A   Unknown
2:00 AM 55.4 °F 51.8 °F 88% 30.12 in 6.2 mi East 6.9 mph - N/A   Unknown
2:30 AM 55.4 °F 51.8 °F 88% 30.12 in 6.2 mi East 6.9 mph - N/A   Unknown
3:00 AM 57.2 °F 51.8 °F 82% 30.09 in 6.2 mi East 8.1 mph - N/A   Unknown
3:30 AM 53.6 °F 50.0 °F 88% 30.09 in 6.2 mi ENE 6.9 mph - N/A   Unknown
4:00 AM 51.8 °F 48.2 °F 88% 30.09 in 6.2 mi ENE 5.8 mph - N/A   Unknown
4:30 AM 51.8 °F 48.2 °F 88% 30.06 in 6.2 mi ENE 4.6 mph - N/A   Unknown
5:00 AM 53.6 °F 50.0 °F 88% 30.06 in 6.2 mi ENE 5.8 mph - N/A   Unknown
5:30 AM 55.4 °F 51.8 °F 88% 30.06 in 6.2 mi East 8.1 mph - N/A   Unknown
6:00 AM 55.4 °F 51.8 °F 88% 30.06 in 6.2 mi ENE 8.1 mph - N/A   Unknown
6:30 AM 53.6 °F 50.0 °F 88% 30.06 in 6.2 mi ENE 6.9 mph - N/A   Unknown
7:00 AM 53.6 °F 50.0 °F 88% 30.06 in 6.2 mi ENE 8.1 mph - N/A   Unknown
7:30 AM 55.4 °F 51.8 °F 88% 30.06 in 6.2 mi ENE 9.2 mph - N/A   Unknown
8:00 AM 57.2 °F 51.8 °F 82% 30.06 in 6.2 mi NE 9.2 mph - N/A   Unknown
8:30 AM 59.0 °F 51.8 °F 77% 30.06 in 6.2 mi NE 10.4 mph - N/A   Unknown
9:00 AM 64.4 °F 51.8 °F 64% 30.04 in 6.2 mi ENE 13.8 mph - N/A   Unknown
9:30 AM 66.2 °F 51.8 °F 60% 30.04 in 6.2 mi ENE 12.7 mph - N/A   Unknown
10:00 AM 68.0 °F 51.8 °F 56% 30.04 in 6.2 mi NE 13.8 mph - N/A   Unknown
10:30 AM 69.8 °F 51.8 °F 53% 30.04 in 6.2 mi NE 15.0 mph - N/A   Unknown
11:00 AM 71.6 °F 53.6 °F 53% 30.04 in 6.2 mi NE 17.3 mph - N/A   Unknown
11:30 AM 73.4 °F 51.8 °F 47% 30.01 in 6.2 mi NE 19.6 mph - N/A   Unknown
12:00 PM 75.2 °F 51.8 °F 44% 30.01 in 6.2 mi NE 20.7 mph - N/A   Unknown
12:30 PM 73.4 °F 53.6 °F 50% 30.01 in 6.2 mi ENE 19.6 mph - N/A   Unknown
1:00 PM 75.2 °F 55.4 °F 50% 29.98 in 6.2 mi ENE 19.6 mph - N/A   Unknown
1:30 PM 73.4 °F 53.6 °F 50% 29.95 in 6.2 mi ENE 20.7 mph - N/A   Unknown
2:00 PM 75.2 °F 53.6 °F 47% 29.95 in 6.2 mi ENE 19.6 mph - N/A   Unknown
2:30 PM 73.4 °F 53.6 °F 50% 29.95 in 6.2 mi ENE 19.6 mph - N/A   Unknown
3:00 PM 73.4 °F 53.6 °F 50% 29.95 in 6.2 mi ENE 20.7 mph - N/A   Unknown
3:30 PM 69.8 °F 53.6 °F 56% 29.92 in 6.2 mi East 19.6 mph - N/A   Unknown
4:00 PM 69.8 °F 53.6 °F 56% 29.92 in 6.2 mi East 21.9 mph - N/A   Unknown
4:30 PM 73.4 °F 53.6 °F 50% 29.89 in 6.2 mi East 20.7 mph - N/A   Unknown
5:00 PM 69.8 °F 51.8 °F 53% 29.89 in 6.2 mi East 21.9 mph - N/A   Unknown
5:30 PM 69.8 °F 53.6 °F 56% 29.89 in 6.2 mi East 20.7 mph - N/A   Unknown
6:00 PM 69.8 °F 53.6 °F 56% 29.86 in 6.2 mi East 21.9 mph - N/A   Unknown
6:30 PM 68.0 °F 51.8 °F 56% 29.86 in 6.2 mi East 20.7 mph - N/A   Unknown
7:00 PM 68.0 °F 53.6 °F 60% 29.86 in 6.2 mi East 19.6 mph - N/A   Unknown
7:30 PM 66.2 °F 53.6 °F 64% 29.86 in 6.2 mi East 19.6 mph - N/A   Unknown
8:00 PM 64.4 °F 55.4 °F 73% 29.86 in 6.2 mi East 18.4 mph - N/A   Unknown
8:30 PM 62.6 °F 55.4 °F 77% 29.86 in 6.2 mi East 17.3 mph - N/A   Unknown
9:00 PM 62.6 °F 55.4 °F 77% 29.83 in 6.2 mi East 19.6 mph - N/A   Unknown
9:30 PM 62.6 °F 55.4 °F 77% 29.86 in 6.2 mi East 19.6 mph - N/A   Unknown
10:00 PM 60.8 °F 57.2 °F 88% 29.86 in 6.2 mi East 15.0 mph - N/A   Unknown
10:30 PM 60.8 °F 57.2 °F 88% 29.89 in 6.2 mi East 13.8 mph - N/A   Unknown
11:00 PM 60.8 °F 57.2 °F 88% 29.89 in 6.2 mi East 13.8 mph - N/A   Unknown
11:30 PM 60.8 °F 57.2 °F 88% 29.86 in 6.2 mi East 13.8 mph - N/A   Unknown